Showing default

IRIDE-MS2-HEO-8, 64587

Orbit data source: Space-Track

IRIDE-MS2-HEO-8, 64587 is an Italian payload satellite in SSO that was launched on Mon, 23 Jun 2025 UTC via an FALCON 9 launch vehicle from the Air Force Western Test Range (AFWTR). Payload-class satellites include a variety of spacecraft equipped with specific instruments for various scientific and technological missions. These include communications satellites like Starlink; space stations such as the ISS; scientific satellites like the Hubble; Earth observation satellites from companies like Planet Labs, Umbra, and HawkEye 360; GPS; miniature CubeSats for education and research; and military/defense satellites.

Loading next visibility...
Identifier
64587, 2025-135BM
Orbit
SSO
Country
Flag of ITIT
Related business
Manufacturer
ArgoTec
Mission
Operational Civil Imaging
Bus & Motor
HAWK, Unknown motor
Mass
65 kg wet, 65 kg dry
Launch date (UTC)
2025-06-23 (9 months ago)
Launch vehicle
FALCON 9
Launch site
Air Force Western Test Range (AFWTR)
Object type
Payload
Rocket body
Debris
Shape & HBR
Box + 2 Pan, 3.0 m
Radar Cross Section
0.683 m², Medium (>0.1 m² and < 1m²)

Expand to show TLE details & history
Last TLE update: 7 hours ago

TLE from 7 hours ago
0 IRIDE-MS2-HEO-8
1 64587U 25135BM  26072.91227410  .00003116  00000-0  29608-3 0  9998
2 64587  97.7603 188.5922 0003286 300.1315  59.9580 14.94203539 39683
Epoch: 2026-03-13T21:53Z
TLE epoch observation values (Epoch: 2026-03-13T21:53:40.482Z)
Latitude
0.00007°
Longitude
48.63251°
Altitude
586.746 km
Speed
7.567 km/s
True Right ascension
12h 34m 22s
True Declination
0° 00' 00"
Sunlit
Object was in full shadow at epoch
Visualization orbit readout
Latitude
Unknown
Longitude
Unknown
Altitude
Unknown
Speed
Unknown
Apparent Right ascension
Unknown
Apparent Declination
Unknown
Sunlit
N/A
Visualization observer readout
Local Sidereal Time
09:50:19
Azimuth
Unknown
Elevation
Unknown
Doppler factor
Unknown
Orbital elements
Apogee altitude
584.149 km
Perigee altitude
579.575 km
Semi-major axis
6,959.999 km
Eccentricity
0.00033
Inclination
97.7603°
RAAN
188.5922°
Arg. of periapsis
300.1315°
True anomaly
59.9906°
Mean anomaly
59.958°
Eccentric anomaly
59.9743°
Mean motion
3.73792 °/min
Orbital period
96.31 mins
BSTAR
0.00029608
Loading maneuver chart data...
Computing Atmospheric mass density...
Loading historical data...
Loading historical data...
Loading historical data...
Loading historical data...
Loading historical data...
Loading historical data...
Loading historical data...

Documentation

Showing up to 5 results
|